小惑星2003 EH1

2003 EH1 (2008)

English version
Home page
Total 6,336 html files since Dec. 4, 1995
Updated on April 12, 2008

---------------------------------------------------------------------

・ プロフィール

・ 軌道要素

Perturbed ephemeris below is based on 48-day-arc unperturbed elements from MPO 48330.
Last observed on 2003 Apr. 23. 

 Epoch = 2454720.50000 TT   T = 2454712.25783 TT
 Peri. =  171.35915         a =     3.1255104 AU
 Node  =  282.96995 J2000.0 e =     0.6188666
 Incl. =   70.80073         q =     1.1912366 AU

・ 光度変化

        H = 16.3  G = 0.15

---------------------------------------------------------------------

軌道要素はMinor Planet & Comet Ephemeris Serviceで計算したものです。
光度グラフはComet for Windowsで作成したものです。

---------------------------------------------------------------------

Copyright(C) 1995-2008 Seiichi Yoshida (comet@aerith.net). All rights reserved.